Weather History for Truth Or Consequences, NM

Change the Weather History Date:

Friday, March 1, 2013

  Actual Average Record
Temperature  
Mean Temperature 47 °F -  
Max Temperature 63 °F - 78 °F (1999)
Min Temperature 30 °F - 24 °F (1998)
Degree Days  
Heating Degree Days 18    
Month to date heating degree days 18  
Since 1 July heating degree days 2561  
Cooling Degree Days 0    
Month to date cooling degree days 0  
Year to date cooling degree days 0  
Moisture  
Dew Point 8 °F    
Average Humidity 21    
Maximum Humidity 27    
Minimum Humidity 14    
Precipitation  
Precipitation 0.00 in - 0.00 in (2015)
Month to date precipitation 0.00  
Year to date precipitation 0.08  
Sea Level Pressure  
Sea Level Pressure 30.23 in    
Wind  
Wind Speed 5 mph (NW)    
Max Wind Speed 21 mph    
Max Gust Speed 29 mph    
Visibility 10 miles    
Events      
T = Trace of Precipitation, MM = Missing Value Source: NWS Daily Summary

Daily Weather History Graph

Daily Weather History Graph

Search for Another Location

Airport:

Trip Planner

Search our weather history database for the weather conditions in past years. The results will help you decide how hot, cold, wet, or windy it might be!

Date:

Astronomy

Mar. 01, 2013 Rise Set
Actual Time 6:36 AM MST 6:06 PM MST
Civil Twilight 6:11 AM MST 6:31 PM MST
Nautical Twilight 5:43 AM MST 6:59 PM MST
Astronomical Twilight 5:14 AM MST 7:28 PM MST
Moon 10:25 PM MST (3/1) 8:40 AM MST (3/1)
Length of Visible Light 12h 19m
Length of Day
11h 29m
Waning Gibbous, 83% of the Moon is Illuminated
Mar 1
Waning Gibbous
Mar 4
Last Quarter
Mar 11
New
Mar 19
First Quarter
Mar 27
Full

Hourly Weather History & Observations

Time (MST) Temp. Windchill Dew Point Humidity Pressure Visibility Wind Dir Wind Speed Gust Speed Precip Events Conditions
12:53 AM 45.0 °F 39.7 °F -0.0 °F 15% 30.21 in 10.0 mi NW 10.4 mph 18.4 mph N/A   Clear
1:53 AM 41.0 °F 35.8 °F 1.0 °F 19% 30.21 in 10.0 mi West 8.1 mph - N/A   Clear
2:53 AM 36.0 °F 33.3 °F -0.0 °F 22% 30.21 in 10.0 mi NNW 3.5 mph - N/A   Clear
3:53 AM 37.9 °F 35.5 °F 1.0 °F 21% 30.23 in 10.0 mi North 3.5 mph - N/A   Clear
4:53 AM 34.0 °F 28.8 °F 1.9 °F 26% 30.24 in 10.0 mi NNW 5.8 mph - N/A   Clear
5:53 AM 32.0 °F 25.6 °F 1.0 °F 27% 30.26 in 10.0 mi West 6.9 mph - N/A   Clear
6:53 AM 35.1 °F 31.0 °F 3.9 °F 27% 30.28 in 10.0 mi NNE 4.6 mph - N/A   Clear
7:53 AM 43.0 °F 40.3 °F 7.0 °F 23% 30.29 in 10.0 mi NNE 4.6 mph - N/A   Clear
8:53 AM 46.0 °F 44.8 °F 7.0 °F 20% 30.30 in 10.0 mi NE 3.5 mph - N/A   Clear
9:53 AM 48.0 °F - 7.0 °F 19% 30.30 in 10.0 mi Calm Calm - N/A   Clear
10:53 AM 51.1 °F - 8.1 °F 18% 30.29 in 10.0 mi Variable 4.6 mph - N/A   Clear
11:53 AM 53.1 °F - 9.0 °F 17% 30.26 in 10.0 mi Calm Calm - N/A   Clear
12:53 PM 55.0 °F - 10.0 °F 17% 30.22 in 10.0 mi Calm Calm - N/A   Clear
1:53 PM 57.9 °F - 10.0 °F 15% 30.19 in 10.0 mi Variable 3.5 mph - N/A   Clear
2:53 PM 60.1 °F - 10.9 °F 14% 30.19 in 10.0 mi SE 6.9 mph - N/A   Clear
3:53 PM 61.0 °F - 10.9 °F 14% 30.16 in 10.0 mi Calm Calm - N/A   Clear
4:53 PM 60.8 °F - 10.4 °F 14% 30.26 in 10.0 mi Calm Calm - N/A   Clear
5:53 PM 59.0 °F - 10.4 °F 15% 30.26 in 10.0 mi South 5.8 mph - N/A   Clear
6:53 PM 54.0 °F - 10.9 °F 18% 30.20 in 10.0 mi WSW 3.5 mph - N/A   Clear
7:53 PM 51.1 °F - 10.0 °F 19% 30.20 in 10.0 mi West 6.9 mph - N/A   Clear
8:53 PM 51.1 °F - 12.9 °F 22% 30.22 in 10.0 mi West 5.8 mph - N/A   Clear
9:53 PM 51.1 °F - 15.1 °F 24% 30.22 in 10.0 mi WNW 9.2 mph - N/A   Clear
10:53 PM 50.0 °F - 17.1 °F 27% 30.22 in 10.0 mi NNW 8.1 mph - N/A   Clear
11:53 PM 50.0 °F - 18.0 °F 28% 30.22 in 10.0 mi North 6.9 mph - N/A   Clear